星链-30071 (STARLINK-30071 )

导读

STARLINK-30071是美国SpaceX星链卫星互联网项目的卫星,于2023年5月19日发射升空。它属于星链低轨星座部署的一部分,旨在为全球提供高速卫星互联网接入服务,尤其覆盖偏远和网络基础设施匮乏区域。作为星链扩容批次卫星,它延续了项目扁平化设计与批量发射部署思路,推进低轨通信星座组网进程,服务全球商业、民用甚至特殊场景的网络需求。

基本信息
目录编号:
56708
目录名称:
STARLINK-30071
国际标识:
2023-067W
轨道中心:
EARTH
卫星名称:
星链-30071
卫星全名:
星链-30071 (STARLINK-30071 )
卫星状态:
在轨 (已飞行1211 天)
发射日期:
2023-05-19 UTC
国别 :
美国 (US)
星等 :
--
该卫星已列入 空间交会检测服务 Space Conjunction Data Service (SCDS) ,当前飞行风险评估等级: 无高风险
轨道信息
数据来源 国际轨道数据
星历时间: 2026-09-09T19:08:02+0800
2天前
查看轨道信息
半长轴: 6861.217km
偏心率: 0.0002402
轨道倾角: 43.003°
近地点辐角 266.115°
升交点赤经 316.803°
平近点角 93.943°
近地点: 481.431km
远地点: 484.729km
周期: 94.267分钟
每日圈数: 15.275698
详细信息
固有亮度:
5
最大亮度:
0.3
卫星平台:
Starlink v2.0 mini
覆盖范围:
全球
运营商:
太空探索技术公司
运营商所在国:
美国
制造商(研发单位):
太空探索技术公司
制造商所在国:
美国
使用方式:
暂无
卫星简介
星链(Starlink)计划是由太空探索技术公司(SpaceX)提出的一个巨型低轨卫星互联网星座项目,计划在2019年至2024年间在太空搭建由约1.2万颗卫星组成的“星链”网络,其中1584颗将部署在地球上空550千米处的近地轨道,并从2020年开始工作。该卫星仍在工作。
2D轨道图
3D轨道图
轨道高度分析图
轨道倾角分析图
轨道综合分析图
查看轨道综合分析图
交会数据列表
事件ID 空间交会对象 最接近时刻(TCA) 交会距离 交会风险概率(CRP) 交会风险指数(CRI) 操作
CDM_260911-191905-670805-994221
2026-09-11T
19:19:51+0000
0.730 km
远距离
3.621216E-5 中风险 0.66
CDM_260913-085505-670806-249921
2026-09-13T
08:55:18+0000
0.573 km
远距离
3.501041E-5 中风险 0.66
CDM_260912-185405-670806-650721
2026-09-12T
18:54:18+0000
1.012 km
极远距离
1.446755E-5 中风险 0.58
CDM_260911-205405-670805-994221
2026-09-11T
20:54:01+0000
1.000 km
极远距离
1.269044E-5 中风险 0.57
CDM_260913-061605-670806-761921
2026-09-13T
06:16:54+0000
1.381 km
极远距离
6.564497E-6 低风险 0.51
CDM_260911-174505-670805-994221
2026-09-11T
17:45:42+0000
1.225 km
极远距离
6.310141E-6 低风险 0.51
CDM_260913-111605-670806-249921
2026-09-13T
11:16:32+0000
1.269 km
极远距离
2.54115E-6 低风险 0.43
CDM_260911-222805-670805-994221
2026-09-11T
22:28:10+0000
1.714 km
极远距离
2.186332E-6 低风险 0.42
CDM_260913-075105-670806-761921
2026-09-13T
07:51:03+0000
2.112 km
极远距离
1.913291E-6 低风险 0.41
CDM_260911-161105-670805-994221
2026-09-11T
16:11:33+0000
1.965 km
极远距离
1.52833E-6 低风险 0.39
与全量物体交会距离演化趋势
与全量物体交会风险概率演化趋势